This is the latest recevied weather packets stored in our database for station/object WX5KDM. If no packets are shown the sender has not sent any weather packets the latest 10 day(s).
| Time | Temp. | Humidity | Pressure | Rain* | Wind** | Luminosity | Snow |
|---|---|---|---|---|---|---|---|
| 1778190432 | 21.67° C | 48% | 1015.6 hPa | 0 mm | - | - | - |
| 1778190129 | 21.67° C | 48% | 1015.4 hPa | 0 mm | - | - | - |
| 1778189824 | 22.22° C | 44% | 1015.5 hPa | 0 mm | - | - | - |
| 1778189522 | 21.67° C | 46% | 1015.5 hPa | 0 mm | - | - | - |
| 1778189217 | 21.67° C | 48% | 1015.5 hPa | 0 mm | - | - | - |
| 1778188914 | 21.67° C | 47% | 1015.5 hPa | 0 mm | - | - | - |
| 1778188611 | 21.67° C | 48% | 1015.6 hPa | 0 mm | - | - | - |
| 1778188306 | 21.67° C | 46% | 1015.6 hPa | 0 mm | - | - | - |
| 1778188005 | 21.67° C | 47% | 1015.4 hPa | 0 mm | - | - | - |
| 1778187701 | 21.67° C | 44% | 1015.5 hPa | 0 mm | - | - | - |
| 1778187398 | 21.67° C | 44% | 1015.6 hPa | 0 mm | - | - | - |
| 1778187094 | 22.22° C | 46% | 1015.5 hPa | 0 mm | - | - | - |
| 1778186791 | 22.22° C | 46% | 1015.6 hPa | 0 mm | - | - | - |
| 1778186488 | 21.67° C | 49% | 1015.8 hPa | 0 mm | - | - | - |
| 1778186186 | 22.22° C | 45% | 1016 hPa | 0 mm | - | - | - |
| 1778185883 | 21.67° C | 45% | 1015.8 hPa | 0 mm | - | - | - |
| 1778185579 | 21.11° C | 48% | 1015.8 hPa | 0 mm | - | - | - |
| 1778185275 | 21.67° C | 50% | 1015.9 hPa | 0 mm | - | - | - |
| 1778184970 | 21.67° C | 47% | 1016.1 hPa | 0 mm | - | - | - |
| 1778184668 | 21.11° C | 54% | 1015.9 hPa | 0 mm | - | - | - |
| 1778184363 | 21.11° C | 56% | 1016.3 hPa | 0 mm | - | - | - |
| 1778184059 | 21.67° C | 49% | 1016.4 hPa | 0 mm | - | - | - |
| 1778183757 | 21.67° C | 53% | 1016.2 hPa | 0 mm | - | - | - |
| 1778183454 | 21.67° C | 47% | 1016.2 hPa | 0 mm | - | - | - |
| 1778183150 | 21.67° C | 48% | 1016.3 hPa | 0 mm | - | - | - |
* Rain latest hour (hover to see other rain measurements)
** Current wind speed in m/s (hover to see current wind gust speed)